Location: Newark
(41.3300°N, 14.0200°E)
Time: 13:42:31
(UTC+00:00)

Envisat - Visible Passes

Search period start: 19 January 2020 00:00
Search period end: 29 January 2020 00:00
Orbit: 764 x 766 km, 98.1° (Epoch: 19 January)

Date Brightness Start Highest point End Pass type
(mag) Time Alt. Az. Time Alt. Az. Time Alt. Az.
19 Jan 5.3 04:57:58 10° NE 05:02:17 27° E 05:06:35 10° SSE visible
19 Jan 5.2 17:51:53 10° SSW 17:56:06 26° W 18:00:21 10° NW visible
20 Jan 6.3 04:23:10 10° ENE 04:25:09 12° E 04:27:06 10° ESE visible
20 Jan 3.7 17:14:09 10° S 17:19:09 59° W 17:24:11 10° NNW visible
21 Jan 4.1 05:22:59 10° NNE 05:27:55 48° E 05:32:48 10° S visible
21 Jan 3.0 16:37:23 10° SSE 16:42:23 63° ENE 16:47:26 10° N visible
21 Jan 6.0 18:18:59 10° SW 18:21:50 15° W 18:24:41 10° NW visible
22 Jan 5.6 04:47:00 10° NE 04:50:54 22° E 04:54:47 10° SE visible
22 Jan 4.8 17:40:11 10° SSW 17:44:44 33° W 17:49:19 10° NNW visible
23 Jan 3.1 05:48:19 10° NNE 05:53:26 85° ESE 05:58:31 10° SSW visible
23 Jan 3.3 17:02:47 10° S 17:07:50 75° WSW 17:12:56 10° NNW visible
24 Jan 4.6 05:11:50 10° NNE 05:16:35 38° E 05:21:16 10° SSE visible
24 Jan 5.8 18:06:52 10° SW 18:10:26 19° W 18:14:01 10° NW visible
25 Jan 6.0 04:36:12 10° NE 04:39:30 17° E 04:42:49 10° SE visible
25 Jan 4.4 17:28:36 10° S 17:33:24 42° W 17:38:13 10° NNW visible
26 Jan 3.5 05:37:03 10° NNE 05:42:08 67° ESE 05:47:11 10° S visible
26 Jan 3.0 16:51:28 10° SSE 16:56:33 87° ENE 17:01:40 10° NNW visible
26 Jan 6.4 18:35:31 10° W 18:36:13 10° W 18:36:55 10° W visible
27 Jan 5.1 05:00:46 10° NE 05:05:13 30° E 05:09:38 10° SSE visible
27 Jan 5.4 17:54:58 10° SSW 17:59:02 24° W 18:03:08 10° NW visible
28 Jan 6.2 04:25:39 10° ENE 04:28:06 13° E 04:30:31 10° ESE visible
28 Jan 3.9 17:17:07 10° S 17:22:03 53° W 17:27:02 10° NNW visible
